Miscellaneous Local Product
Issued by NWS North Platte, NE

Home | Current Version | Previous Version | Text Only | Print | Product List | Glossary On
Versions: 1 2 3 4 5 6 7 8 9 10 11 12 13 14 15 16 17 18 19 20 21 22 23 24 25 26 27 28 29 30 31 32 33 34 35 36 37 38 39 40 41 42 43 44 45 46 47 48 49 50
000
AXUS43 KLBF 201510
MISLBF


WESTERN AND NORTH CENTRAL NEBRASKA HOURLY WEATHER ROUNDUP
NATIONAL WEATHER SERVICE NORTH PLATTE NE
1000 AM CDT SAT SEP 20 2014

***STATIONS NOT REPORTING VARIABLES SUCH AS SKY/WEATHER OR
PRESSURE ARE PROVIDED BY THE NEBRASKA DEPARTMENT OF
ROADS...RAWS...AND APRS NETWORKS...AND ARE NOT UNDER
NATIONAL WEATHER SERVICE QUALITY CONTROL***

...OBSERVATIONS IN AND NEAR THE EASTERN PANHANDLE OF NEBRASKA...

CITY           SKY/WX    TMP DP  RH WIND       PRES   REMARKS
PINE RIDGE     SUNNY     63  53  70 W5        30.11S
CHADRON        SUNNY     63  52  67 SW7       30.13R
ALLIANCE       SUNNY     65  50  58 W7        30.15R
SIDNEY         SUNNY     65  51  60 NW12      30.19R
WHITECLAY        N/A     65  51  58 CALM        N/A
RUSHVILLE        N/A     65  47  51 W8          N/A
LISCO            N/A     69  50  51 W8          N/A
BIG SPRINGS      N/A     59  55  85 N3          N/A
$$

...OBSERVATIONS IN NORTH CENTRAL NEBRASKA...

CITY           SKY/WX    TMP DP  RH WIND       PRES   REMARKS
VALENTINE      SUNNY     70  52  52 NW9       30.05R
THEDFORD       SUNNY     72  53  51 N6        30.08R
AINSWORTH      SUNNY     68  54  61 NW6       30.04R
O`NEILL        SUNNY     69  59  69 NW7       30.00R
ORD            SUNNY     72  55  55 N8        29.99R
BROKEN BOW     SUNNY     73  52  47 N9        30.03R
SPRINGVIEW       N/A     67  57  71 SW3         N/A
ROSE             N/A     74  58  58 W6          N/A
NEWPORT          N/A     71  58  63 W12         N/A
COMSTOCK         N/A     78  57  48 NE6         N/A
CHAMBERS         N/A     72  57  59 N3          N/A
$$

...OBSERVATIONS IN SOUTHWEST NEBRASKA AND FAR NORTHEAST COLORADO...

CITY           SKY/WX    TMP DP  RH WIND       PRES   REMARKS
WRAY           FAIR      71  50  47 N15G23    30.13R
HOLYOKE        FAIR      73  52  46 N12       30.14R
IMPERIAL       SUNNY     70  51  51 N9        30.10R
OGALLALA       SUNNY     72  52  49 N9        30.12R
NORTH PLATTE   SUNNY     70  53  54 NE13      30.06R
MCCOOK         SUNNY     73  53  49 NE18      30.02R
LEXINGTON      SUNNY     72  55  54 NE10G17   30.02R
PAXTON           N/A     64  54  70 N5          N/A
SUTHERLAND       N/A     73  55  53 N6          N/A
BRADY            N/A     71  53  52 CALM        N/A
GOTHENBURG       N/A     66  51  58 N5          N/A
CALLAWAY         N/A     66  55  67 NE10        N/A
$$

...SOME WEATHER OBSERVATIONS FROM AROUND THE REGION...

CITY           SKY/WX    TMP DP  RH WIND       PRES   REMARKS
DENVER         MOSUNNY   62  48  60 N8        30.27R
LARAMIE        SUNNY     54  37  52 S3        30.35R
CHEYENNE       SUNNY     62  45  53 NW3       30.29R
SCOTTSBLUFF    SUNNY     61  49  64 NW9       30.18R
RAPID CITY     SUNNY     69  48  47 NW12      30.09R
PIERRE         SUNNY     66  52  60 W12       29.95R
WINNER         FAIR      70  55  59 W10       30.00R
SIOUX FALLS    MOSUNNY   70  59  68 NW5       29.91R
OMAHA          CLOUDY    72  65  78 CALM      29.93R
GRAND ISLAND   SUNNY     73  59  61 NE8       29.99R
KANSAS CITY    MOSUNNY   74  70  87 SW8       30.01R
WICHITA        MOSUNNY   77  68  73 S12       30.01R
HAYS           SUNNY     73  63  68 SW9       29.98R
LIBERAL        SUNNY     73  64  73 SW14      30.04R
GOODLAND       SUNNY     68  57  68 NE14      30.08R
$$



USA.gov is the U.S. government's official web portal to all federal, state and local government web resources and services.